TRANSAT

Last updated on Sat Sep 05 2026 00:03:34 GMT+0000 (Coordinated Universal Time)

1 10457U 77106A 26247.47418874 .00000058 00000+0 75856-4 0 9999 2 10457 89.6420 69.0875 0026580 143.4824 245.4324 13.48979767403260
UTC large
Height (km)
Speed (km/s)
/
Latitude / Longitude
Inclination (degrees)
Orbital Period (minutes)
Azimuth
Elevation
Range (km)
Doppler Factor

Next 0 passes for location: London (51.5072 / 0.1276)

No passes found over London.
TRANSAT